Wind_Speed
24 25 23 22 20 18 16 14 13 12 11 10 10 11 11 11 11 11 10 10 10 10 10 10 10 10 10 9 9 10 10 10 10 10 8 8 8 9 9 8 9 10 10
20 25 24 22 21 18 17 14 12 11 10 9 9 9 9 9 10 10 10 10 10 10 10 11 10 10 10 10 10 10 11 11 10 9 8 7 7 7 7 7 6 8 8
18 23 24 22 20 19 17 15 13 11 10 9 8 8 8 8 7 8 9 9 9 10 10 10 10 9 9 9 9 9 9 10 9 8 7 6 5 5 5 5 4 6 7
18 21 22 22 20 19 17 15 13 11 10 9 7 7 6 6 6 7 7 8 8 9 9 9 9 9 8 8 8 8 7 6 6 5 5 5 3 4 3 2 3 4 6
22 20 21 20 20 19 18 16 14 13 11 10 8 7 6 5 5 5 5 6 6 7 8 8 8 8 7 7 6 4 2 0 1 2 6 3 2 2 1 1 0 2 3
21 20 20 19 19 19 18 17 16 14 12 11 9 7 6 4 4 3 3 3 4 4 6 6 7 8 6 4 3 2 2 2 7 7 7 5 3 3 2 1 1 2 3
19 20 20 19 19 18 18 17 16 14 13 11 10 8 6 4 3 2 2 1 2 2 2 3 4 6 6 3 3 4 4 5 6 7 7 2 4 4 3 3 2 2 4
12 19 20 19 18 17 17 17 16 15 13 11 10 8 7 5 3 1 0 1 1 2 1 1 2 2 4 3 4 6 8 8 7 7 6 4 9 9 6 6 5 4 5
12 18 21 19 19 18 18 17 16 15 12 11 10 8 7 5 4 3 2 2 2 3 3 4 3 5 5 7 7 6 9 9 10 9 8 8 11 13 11 9 9 6 6
10 16 19 19 19 19 19 18 16 15 13 12 11 9 8 7 5 4 3 3 4 4 6 6 7 6 6 7 8 9 16 10 10 10 10 10 12 15 14 13 11 7 9
13 14 17 20 19 20 19 18 17 16 14 13 12 10 9 8 6 5 6 7 6 9 9 9 8 6 8 17 18 22 23 16 10 11 11 11 10 9 13 14 15 17 12
16 15 17 18 19 22 22 20 19 17 16 14 13 11 10 9 8 9 10 9 8 8 9 10 12 13 16 14 16 21 21 15 10 12 13 13 13 14 18 17 20 23 16
14 16 17 17 17 21 24 22 20 17 16 15 13 11 11 11 11 11 11 11 9 7 10 11 12 17 19 22 27 21 15 19 10 10 12 15 16 17 19 20 18 18 24
19 19 19 17 15 20 23 23 20 17 15 14 13 12 12 12 12 13 12 9 7 9 10 12 15 16 19 20 3 6 6 3 6 14 14 13 13 14 14 14 18 25 17
24 23 21 16 16 17 22 22 19 16 14 13 14 13 13 12 10 10 7 8 9 9 10 16 16 11 12 4 5 5 3 6 6 6 6 9 9 9 7 7 9 3 9
22 26 23 18 16 15 19 21 19 14 13 15 13 12 10 8 7 8 9 10 10 9 14 16 11 7 5 1 2 2 5 7 6 5 5 6 5 5 8 8 3 5 8
11 23 27 21 16 16 18 20 19 14 13 14 13 13 8 10 8 9 10 10 10 12 14 10 6 3 2 2 2 4 4 6 6 5 1 3 3 5 3 2 6 9 3
11 16 28 24 20 18 19 20 20 17 14 15 14 13 12 11 10 9 9 9 11 10 8 3 1 2 3 3 3 4 4 4 3 3 3 4 5 5 5 3 4 8 7
10 15 28 27 23 21 21 19 20 18 16 14 16 16 15 12 11 11 11 11 8 7 5 3 2 2 2 4 4 4 5 4 1 1 4 3 1 5 4 6 6 9 2
11 14 27 30 27 24 23 20 20 19 14 14 15 18 15 13 14 13 10 8 6 6 6 4 2 3 3 4 4 5 7 6 6 6 5 4 6 6 6 9 7 5 12
13 15 26 32 30 27 27 25 22 21 17 16 17 15 14 17 15 11 8 7 6 7 6 4 5 5 4 4 5 6 6 6 9 11 7 7 6 10 9 15 11 14 11
13 16 30 35 32 30 28 27 23 21 21 17 18 17 15 13 11 9 8 7 8 7 7 7 7 6 6 6 7 10 5 9 7 7 6 8 10 13 13 12 13 14 10
18 18 28 36 34 29 25 23 22 20 18 16 18 18 15 11 10 9 9 9 9 8 8 8 8 7 9 10 11 8 3 2 11 8 10 11 11 13 15 15 14 13 14
18 21 29 35 33 29 25 22 23 20 15 17 18 18 15 12 11 10 9 9 9 8 7 8 9 13 13 12 12 13 11 13 9 9 14 15 18 16 18 18 16 15 16
21 23 29 33 31 28 24 25 20 16 16 16 17 16 15 14 12 10 10 10 9 8 9 10 9 10 9 10 11 11 12 14 15 15 18 16 16 16 18 18 18 17 19
24 24 29 29 29 28 26 24 19 17 18 18 18 17 16 16 12 12 12 11 10 10 9 9 10 9 8 7 7 8 10 10 10 13 15 17 19 20 18 20 18 17 19
Wind_Direction
180 177 177 175 174 174 169 159 152 143 132 120 111 106 102 99 95 89 86 84 84 86 90 90 89 87 88 88 85 86 84 81 80 81 76 83 94 99 104 100 110 119 123
173 178 180 177 177 178 174 168 159 154 145 127 117 109 102 97 94 90 86 83 84 86 88 90 87 88 90 91 91 96 100 102 97 89 83 79 86 88 100 100 119 120 119
175 178 181 179 180 182 179 173 169 165 158 143 127 117 109 102 95 91 84 82 83 87 92 95 97 94 93 98 101 106 110 108 98 107 96 88 81 74 76 92 117 136 144
175 181 183 181 183 184 182 180 178 175 169 161 147 137 124 115 108 95 89 85 85 89 94 102 107 107 107 110 111 113 111 108 99 84 90 97 85 51 52 74 114 142 141
180 184 183 182 185 184 184 185 186 184 179 176 169 156 144 135 118 102 92 89 86 93 104 112 118 118 115 122 124 119 118 43 291 327 305 1 82 26 33 22 84 159 160
181 184 183 183 184 185 185 188 190 190 184 183 181 169 162 152 136 114 96 88 94 96 103 112 124 134 137 138 158 196 236 289 313 342 324 287 334 11 325 317 297 202 191
182 187 184 183 183 185 187 191 191 192 190 189 188 179 178 172 158 122 96 64 51 69 91 114 138 151 163 192 227 241 272 279 293 323 341 294 322 329 296 269 261 255 221
191 189 187 184 185 186 189 193 194 195 194 194 193 190 190 189 193 175 167 319 337 347 337 290 233 210 199 213 265 265 271 281 285 296 302 276 296 293 270 276 247 251 240
189 197 191 190 187 190 192 194 198 198 195 199 201 198 204 209 211 218 248 289 326 303 305 275 271 267 272 260 256 262 285 284 291 289 281 269 289 278 262 260 255 238 245
186 199 201 201 196 200 196 197 201 200 198 204 206 206 210 223 231 245 269 275 281 290 270 280 274 278 294 306 287 265 298 273 287 296 289 270 278 274 242 257 242 251 257
192 195 207 215 209 213 207 204 204 201 202 208 211 213 221 228 238 255 260 262 266 274 295 302 297 291 308 305 287 275 270 283 279 293 297 286 293 253 251 258 254 273 246
209 205 209 215 216 218 214 211 212 206 208 214 217 222 229 233 242 249 255 271 282 296 315 306 304 297 303 318 276 276 257 295 304 299 293 281 257 253 254 277 266 273 243
219 214 217 215 221 223 219 215 214 211 213 217 221 225 232 237 245 255 264 272 288 303 299 306 308 308 303 302 296 297 256 257 296 311 294 275 277 257 262 278 255 234 225
225 222 219 216 220 223 219 219 219 216 216 221 224 227 235 243 252 261 266 273 291 295 308 301 307 307 311 311 340 59 144 205 314 316 301 286 275 265 266 276 267 265 220
242 227 220 216 210 215 216 216 216 217 218 221 224 228 236 246 251 267 280 293 290 292 295 302 303 307 317 17 68 105 52 337 310 266 247 262 280 296 296 298 287 350 240
242 237 218 210 205 206 215 213 210 199 206 203 210 211 215 219 250 266 276 278 281 291 300 302 303 318 290 21 65 20 354 332 311 293 249 247 275 294 313 335 176 160 188
246 230 218 208 200 199 206 203 198 197 196 201 204 210 220 230 248 257 259 271 286 298 299 306 303 289 270 301 356 357 349 359 348 340 296 250 288 315 333 314 243 266 303
235 214 213 207 202 200 199 200 201 200 205 216 219 225 236 241 255 255 256 267 284 285 293 322 114 222 239 226 275 301 328 346 13 93 39 4 344 322 333 296 307 324 344
226 214 205 204 204 204 201 202 208 210 212 225 232 231 229 243 248 247 258 267 261 260 246 209 162 185 241 267 280 315 329 338 107 330 341 358 338 290 291 289 310 305 297
205 213 205 202 204 206 206 207 207 207 208 222 225 207 231 240 246 254 254 241 242 241 229 213 208 228 237 254 276 311 325 331 340 343 323 302 248 269 274 305 309 302 317
205 207 208 206 205 208 208 210 208 207 214 220 227 231 244 245 247 244 230 230 222 211 220 241 262 275 270 262 285 304 308 302 308 314 300 292 252 258 280 321 299 308 292
227 223 210 209 209 208 211 215 215 211 208 226 237 233 242 238 225 219 221 221 211 214 231 253 267 272 273 280 283 297 295 309 320 324 312 317 287 281 301 292 298 306 290
214 216 209 210 211 209 208 211 213 211 213 227 233 233 236 222 210 218 221 218 217 222 229 241 247 248 275 278 277 275 303 286 328 310 313 316 307 289 296 293 282 292 293
218 211 208 207 206 207 211 213 223 228 233 226 228 233 227 214 213 215 219 214 210 205 209 222 242 267 271 270 270 273 276 283 292 299 308 308 301 289 294 291 282 287 286
214 209 202 199 202 211 223 227 220 217 232 234 225 226 215 214 218 216 206 204 204 213 228 245 250 258 262 266 268 271 263 264 269 282 294 298 294 296 297 300 284 289 286
206 201 197 198 208 218 223 215 211 220 220 222 227 217 219 213 217 206 202 208 214 217 225 238 250 251 256 260 264 267 267 269 271 268 274 280 286 283 281 283 280 284 278
Height
1520 1523 1527 1531 1534 1536 1537 1538 1538 1539 1540 1542 1543 1543 1544 1545 1545 1546 1546 1546 1545 1545 1544 1544 1545 1545 1545 1546 1547 1547 1546 1547 1547 1547 1546 1546 1545 1545 1545 1546 1546 1546 1545
1520 1523 1527 1530 1533 1536 1538 1539 1540 1541 1541 1543 1544 1545 1546 1546 1547 1547 1547 1547 1546 1546 1546 1546 1547 1548 1547 1547 1547 1548 1548 1548 1548 1549 1548 1548 1547 1547 1547 1547 1548 1548 1548
1520 1523 1526 1529 1533 1536 1538 1540 1541 1542 1543 1544 1545 1546 1547 1547 1548 1548 1548 1548 1548 1548 1547 1548 1548 1549 1549 1549 1549 1550 1550 1550 1550 1550 1550 1550 1550 1549 1549 1548 1549 1549 1550
1520 1523 1526 1529 1532 1535 1538 1540 1542 1543 1544 1545 1545 1546 1548 1548 1549 1549 1549 1549 1550 1549 1550 1550 1549 1549 1550 1550 1551 1551 1552 1553 1553 1554 1553 1551 1551 1550 1550 1550 1549 1550 1550
1520 1523 1526 1529 1532 1534 1537 1540 1542 1543 1544 1545 1545 1546 1548 1548 1549 1550 1550 1550 1551 1550 1550 1550 1551 1552 1552 1552 1553 1553 1553 1554 1554 1555 1555 1553 1552 1552 1551 1551 1551 1551 1551
1521 1524 1526 1529 1532 1534 1536 1538 1540 1543 1544 1545 1546 1547 1549 1549 1550 1551 1551 1551 1551 1551 1552 1552 1552 1552 1553 1553 1553 1553 1553 1554 1553 1554 1554 1555 1554 1553 1553 1552 1551 1551 1551
1521 1524 1527 1529 1532 1535 1537 1538 1540 1542 1544 1545 1546 1548 1549 1550 1552 1552 1552 1552 1553 1553 1553 1553 1552 1552 1553 1553 1553 1552 1552 1552 1553 1553 1552 1554 1554 1554 1553 1552 1551 1551 1552
1522 1524 1527 1529 1532 1534 1537 1539 1540 1541 1544 1545 1546 1547 1548 1550 1551 1552 1552 1553 1553 1554 1554 1553 1553 1553 1552 1553 1554 1553 1551 1550 1551 1552 1553 1554 1554 1554 1553 1552 1550 1549 1551
1523 1524 1526 1529 1531 1534 1535 1537 1540 1541 1544 1545 1546 1547 1549 1550 1551 1551 1552 1552 1553 1553 1553 1553 1553 1553 1553 1550 1552 1551 1552 1549 1549 1550 1551 1551 1552 1552 1552 1551 1550 1549 1549
1524 1525 1527 1528 1531 1532 1534 1537 1539 1542 1544 1545 1546 1547 1548 1550 1551 1552 1552 1552 1553 1553 1551 1552 1552 1552 1553 1552 1549 1548 1554 1549 1548 1549 1550 1550 1550 1549 1549 1549 1549 1548 1549
1524 1525 1526 1528 1530 1532 1534 1536 1538 1540 1543 1545 1546 1547 1548 1550 1551 1552 1552 1551 1552 1551 1552 1551 1551 1553 1552 1551 1549 1545 1550 1550 1546 1547 1549 1548 1548 1548 1548 1549 1548 1548 1549
1521 1523 1524 1526 1529 1530 1532 1534 1537 1539 1542 1544 1545 1547 1548 1549 1550 1550 1550 1551 1551 1552 1552 1551 1551 1550 1549 1548 1546 1542 1543 1545 1545 1546 1547 1546 1545 1546 1547 1547 1548 1544 1545
1520 1522 1523 1525 1527 1528 1530 1533 1535 1538 1540 1542 1545 1546 1547 1548 1549 1549 1549 1550 1551 1551 1551 1551 1549 1549 1547 1545 1541 1535 1535 1544 1544 1543 1545 1543 1543 1544 1544 1544 1543 1543 1543
1517 1520 1522 1523 1525 1527 1530 1532 1535 1537 1539 1541 1543 1544 1546 1547 1548 1548 1548 1549 1551 1551 1551 1550 1549 1547 1546 1542 1538 1537 1537 1543 1544 1544 1545 1544 1543 1544 1544 1542 1542 1538 1536
1514 1517 1520 1522 1523 1525 1527 1530 1533 1535 1537 1540 1541 1543 1544 1545 1546 1547 1548 1549 1549 1550 1548 1546 1545 1544 1543 1541 1540 1540 1540 1541 1541 1543 1543 1543 1543 1542 1541 1540 1538 1537 1534
1511 1512 1517 1520 1521 1523 1525 1528 1531 1534 1536 1538 1540 1541 1542 1544 1546 1546 1547 1547 1547 1548 1547 1544 1544 1544 1543 1542 1542 1542 1542 1543 1543 1543 1542 1542 1543 1542 1540 1540 1540 1540 1541
1507 1509 1513 1518 1520 1522 1523 1526 1530 1532 1534 1537 1539 1540 1541 1543 1545 1545 1546 1546 1545 1545 1544 1542 1542 1542 1543 1544 1544 1544 1544 1543 1543 1543 1542 1542 1543 1543 1542 1542 1541 1541 1539
1505 1505 1510 1514 1518 1519 1522 1525 1528 1531 1533 1535 1537 1539 1541 1542 1543 1544 1544 1545 1545 1543 1543 1542 1542 1543 1543 1542 1544 1545 1544 1543 1543 1544 1542 1543 1542 1543 1544 1544 1543 1543 1541
1503 1503 1505 1510 1514 1517 1520 1523 1526 1529 1531 1534 1536 1537 1539 1540 1541 1542 1543 1544 1544 1543 1543 1543 1544 1543 1544 1545 1545 1544 1544 1544 1543 1543 1542 1541 1542 1543 1544 1545 1544 1544 1543
1501 1502 1504 1507 1510 1514 1517 1521 1524 1527 1530 1532 1534 1534 1537 1538 1539 1540 1542 1543 1543 1542 1543 1543 1544 1545 1545 1545 1545 1546 1545 1545 1544 1542 1541 1541 1541 1541 1542 1543 1542 1542 1543
1498 1500 1501 1503 1506 1510 1514 1517 1521 1524 1527 1530 1532 1534 1535 1536 1537 1539 1541 1542 1542 1542 1542 1543 1544 1544 1545 1545 1546 1545 1544 1543 1543 1543 1542 1542 1542 1542 1542 1541 1541 1540 1540
1494 1496 1498 1500 1503 1507 1511 1515 1520 1523 1525 1527 1530 1531 1532 1533 1535 1537 1538 1539 1540 1541 1542 1542 1543 1544 1544 1544 1543 1543 1543 1543 1542 1541 1541 1541 1542 1542 1542 1541 1539 1539 1539
1490 1492 1494 1498 1502 1506 1511 1515 1518 1520 1523 1525 1527 1529 1530 1532 1533 1535 1536 1537 1538 1540 1542 1542 1542 1542 1542 1542 1542 1542 1541 1540 1540 1540 1540 1539 1540 1541 1541 1539 1538 1539 1539
1486 1489 1492 1495 1501 1505 1509 1512 1515 1517 1519 1522 1524 1527 1529 1530 1531 1532 1534 1535 1536 1536 1538 1540 1540 1540 1540 1539 1539 1539 1539 1540 1540 1539 1539 1538 1537 1537 1538 1537 1536 1536 1536
1482 1485 1490 1493 1498 1502 1506 1509 1512 1515 1517 1519 1521 1523 1526 1528 1530 1531 1533 1534 1534 1535 1534 1536 1537 1537 1537 1537 1537 1537 1537 1537 1538 1538 1536 1537 1537 1536 1535 1534 1534 1536 1535
1479 1483 1487 1491 1495 1498 1501 1504 1508 1511 1513 1515 1517 1520 1522 1524 1526 1527 1530 1532 1533 1534 1533 1533 1534 1534 1534 1534 1534 1534 1534 1535 1534 1535 1535 1536 1536 1535 1534 1533 1533 1533 1532